Weather History for KEZM - December, 2012

Change the Weather History Date:

Monday, December 24, 2012

  Actual Average Record
Temperature  
Mean Temperature 52 °F -  
Max Temperature 60 °F 59 °F 70 °F (2014)
Min Temperature 43 °F 38 °F 33 °F (2013)
Degree Days  
Heating Degree Days 14    
Growing Degree Days 2 (Base 50)    
Moisture  
Dew Point 47 °F    
Average Humidity 77    
Maximum Humidity 96    
Minimum Humidity 52    
Precipitation  
Precipitation 0.00 in - - ()
Sea Level Pressure  
Sea Level Pressure 30.01 in    
Wind  
Wind Speed 3 mph (South)    
Max Wind Speed 10 mph    
Max Gust Speed 17 mph    
Visibility 8 miles    
Events Fog , Rain , Thunderstorm    
Averages and records for this station are not official NWS values.
T = Trace of Precipitation, MM = Missing Value Source: NWS Daily Summary

Daily Weather History Graph

Daily Weather History Graph

Search for Another Location

Airport or City:

Trip Planner

Search our weather history database for the weather conditions in past years. The results will help you decide how hot, cold, wet, or windy it might be!

Date:

Astronomy

Dec. 24, 2012 Rise Set
Actual Time 7:31 AM EST 5:33 PM EST
Civil Twilight 7:04 AM EST 6:00 PM EST
Nautical Twilight 6:33 AM EST 6:31 PM EST
Astronomical Twilight 6:03 AM EST 7:01 PM EST
Moon 2:56 PM EST (12/24) 4:13 AM EST (12/24)
Length of Visible Light 10h 56m
Length of Day
10h 02m
Waxing Gibbous, 88% of the Moon is Illuminated
Dec 24
Waxing Gibbous
Dec 28
Full
Jan 4
Last Quarter
Jan 11
New
Jan 18
First Quarter

Hourly Weather History & Observations

Time (EST) Temp. Windchill Dew Point Humidity Pressure Visibility Wind Dir Wind Speed Gust Speed Precip Events Conditions
12:15 AM 48.6 °F - 33.6 °F 56% 30.14 in 10.0 mi Calm Calm - N/A   Mostly Cloudy
12:35 AM 48.2 °F - 34.0 °F 58% 30.13 in 10.0 mi South 3.5 mph - N/A   Scattered Clouds
12:55 AM 47.7 °F - 32.2 °F 55% 30.13 in 10.0 mi Calm Calm - N/A   Clear
1:15 AM 45.3 °F - 35.2 °F 68% 30.12 in 10.0 mi Calm Calm - N/A   Clear
1:35 AM 44.2 °F - 34.3 °F 68% 30.11 in 10.0 mi Calm Calm - N/A   Clear
1:55 AM 43.3 °F 41.7 °F 35.4 °F 74% 30.11 in 10.0 mi South 3.5 mph - N/A   Scattered Clouds
2:15 AM 46.2 °F 44.1 °F 34.0 °F 62% 30.11 in 10.0 mi South 4.6 mph - N/A   Overcast
2:35 AM 46.8 °F - 34.0 °F 61% 30.11 in 10.0 mi South 3.5 mph - N/A   Overcast
2:55 AM 46.8 °F - 34.2 °F 62% 30.10 in 10.0 mi SSW 3.5 mph - N/A   Mostly Cloudy
3:15 AM 48.7 °F - 32.4 °F 53% 30.09 in 10.0 mi SW 3.5 mph - N/A   Mostly Cloudy
3:35 AM 48.4 °F - 33.4 °F 56% 30.08 in 10.0 mi SSW 3.5 mph - N/A   Mostly Cloudy
3:55 AM 49.1 °F - 32.2 °F 52% 30.08 in 10.0 mi Calm Calm - N/A   Scattered Clouds
4:15 AM 48.4 °F - 32.9 °F 55% 30.07 in 10.0 mi SSW 3.5 mph - N/A   Clear
4:35 AM 47.7 °F - 32.9 °F 57% 30.07 in 10.0 mi SSW 4.6 mph - N/A   Clear
4:55 AM 47.5 °F - 33.3 °F 58% 30.07 in 10.0 mi SSW 3.5 mph - N/A   Clear
5:15 AM 47.3 °F - 34.3 °F 61% 30.07 in 10.0 mi South 4.6 mph - N/A   Clear
5:35 AM 47.3 °F - 34.7 °F 62% 30.06 in 10.0 mi Calm Calm - N/A   Clear
5:55 AM 48.7 °F - 33.8 °F 56% 30.05 in 10.0 mi South 4.6 mph - N/A   Clear
6:15 AM 48.0 °F - 34.5 °F 60% 30.05 in 10.0 mi Calm Calm - N/A   Clear
6:35 AM 47.3 °F - 34.3 °F 61% 30.05 in 10.0 mi SSE 3.5 mph - N/A   Clear
6:55 AM 47.3 °F - 35.1 °F 62% 30.05 in 10.0 mi Calm Calm - N/A   Scattered Clouds
7:15 AM 47.7 °F - 34.5 °F 60% 30.05 in 10.0 mi SE 3.5 mph - N/A   Scattered Clouds
7:35 AM 48.2 °F - 34.9 °F 60% 30.05 in 10.0 mi Calm Calm - N/A   Overcast
7:55 AM 48.2 °F - 36.1 °F 63% 30.06 in 10.0 mi Calm Calm - N/A   Overcast
8:15 AM 48.6 °F - 37.0 °F 64% 30.05 in 10.0 mi ESE 3.5 mph - N/A Rain Light Rain
8:35 AM 47.3 °F - 40.5 °F 77% 30.05 in 10.0 mi ESE 4.6 mph - N/A Rain Light Rain
8:55 AM 48.0 °F - 41.0 °F 77% 30.04 in 10.0 mi SE 4.6 mph - N/A   Overcast
9:15 AM 49.3 °F - 41.0 °F 73% 30.04 in 10.0 mi SE 3.5 mph - N/A   Overcast
9:35 AM 50.7 °F - 42.1 °F 72% 30.04 in 10.0 mi SE 4.6 mph - N/A   Overcast
9:55 AM 52.7 °F - 43.5 °F 71% 30.04 in 10.0 mi SSE 6.9 mph - N/A   Overcast
10:15 AM 55.2 °F - 44.2 °F 67% 30.03 in 10.0 mi South 8.1 mph - N/A   Overcast
10:35 AM 57.0 °F - 45.1 °F 64% 30.03 in 10.0 mi SSW 9.2 mph - N/A   Overcast
10:55 AM 57.2 °F - 45.7 °F 65% 30.02 in 10.0 mi SSW 10.4 mph - N/A   Overcast
11:15 AM 58.5 °F - 46.4 °F 64% 30.01 in 10.0 mi South 10.4 mph 17.3 mph N/A   Overcast
11:35 AM 59.2 °F - 47.5 °F 65% 29.99 in 10.0 mi South 8.1 mph - N/A Thunderstorm Overcast
11:55 AM 59.7 °F - 48.2 °F 66% 29.98 in 10.0 mi SSW 8.1 mph - N/A   Overcast
12:15 PM 60.1 °F - 49.1 °F 67% 29.97 in 10.0 mi SSW 8.1 mph - N/A   Overcast
12:35 PM 60.3 °F - 50.0 °F 69% 29.96 in 10.0 mi SSW 4.6 mph - N/A   Light Drizzle
12:55 PM 60.1 °F - 51.3 °F 73% 29.96 in 10.0 mi Calm Calm - N/A Rain Light Rain
1:15 PM 58.6 °F - 54.1 °F 85% 29.94 in 5.0 mi Calm Calm - N/A Rain Rain
1:35 PM 57.7 °F - 55.2 °F 91% 29.94 in 7.0 mi Calm Calm - N/A Rain Light Rain
1:55 PM 58.6 °F - 55.4 °F 89% 29.92 in 10.0 mi South 5.8 mph - N/A Rain Light Rain
2:15 PM 58.6 °F - 56.1 °F 91% 29.92 in 10.0 mi South 9.2 mph - N/A Rain Rain
2:35 PM 58.6 °F - 56.3 °F 92% 29.92 in 7.0 mi SSW 9.2 mph - N/A Rain Rain
2:55 PM 59.0 °F - 56.5 °F 91% 29.94 in 10.0 mi WNW 4.6 mph - N/A Rain Light Rain
3:15 PM 59.4 °F - 57.2 °F 93% 29.94 in 10.0 mi WNW 4.6 mph - N/A   Overcast
3:35 PM 59.9 °F - 57.4 °F 91% 29.94 in 10.0 mi Calm Calm - N/A   Overcast
3:55 PM 60.1 °F - 57.7 °F 92% 29.94 in 10.0 mi Calm Calm - N/A   Light Drizzle
4:15 PM 59.9 °F - 57.9 °F 93% 29.95 in 10.0 mi Calm Calm - N/A Rain Light Rain
4:35 PM 59.4 °F - 57.6 °F 94% 29.95 in 10.0 mi Calm Calm - N/A   Overcast
4:55 PM 59.4 °F - 57.7 °F 94% 29.95 in 10.0 mi Calm Calm - N/A   Overcast
5:15 PM 59.5 °F - 58.1 °F 95% 29.95 in 10.0 mi SSE 3.5 mph - N/A   Overcast
5:35 PM 59.5 °F - 57.7 °F 94% 29.95 in 10.0 mi South 3.5 mph - N/A   Overcast
5:55 PM 59.2 °F - 57.6 °F 94% 29.95 in 10.0 mi South 5.8 mph - N/A   Overcast
6:15 PM 59.4 °F - 57.7 °F 94% 29.96 in 10.0 mi South 3.5 mph - N/A   Overcast
6:35 PM 59.0 °F - 57.6 °F 95% 29.96 in 10.0 mi Calm Calm - N/A   Overcast
6:55 PM 58.8 °F - 57.4 °F 95% 29.96 in 10.0 mi Calm Calm - N/A   Overcast
7:15 PM 59.0 °F - 57.7 °F 96% 29.97 in 5.0 mi Calm Calm - N/A   Overcast
7:35 PM 58.6 °F - 57.4 °F 96% 29.96 in 10.0 mi Calm Calm - N/A   Overcast
7:55 PM 57.7 °F - 56.5 °F 96% 29.96 in 7.0 mi South 3.5 mph - N/A   Overcast
8:15 PM 57.9 °F - 56.7 °F 96% 29.96 in 4.0 mi Calm Calm - N/A   Overcast
8:35 PM 58.1 °F - 57.0 °F 96% 29.97 in 0.5 mi Calm Calm - N/A Fog Fog
8:55 PM 58.1 °F - 56.8 °F 96% 29.97 in 1.5 mi Calm Calm - N/A   Overcast
9:15 PM 58.6 °F - 57.6 °F 96% 29.98 in 7.0 mi Calm Calm - N/A   Overcast
9:35 PM 59.9 °F - 58.6 °F 96% 29.99 in 7.0 mi SSW 3.5 mph - N/A   Overcast
9:55 PM 60.1 °F - 59.0 °F 96% 29.99 in 4.0 mi SW 4.6 mph - N/A   Overcast
10:15 PM 60.1 °F - 59.0 °F 96% 29.99 in 1.0 mi Calm Calm - N/A   Overcast
10:35 PM 59.9 °F - 58.6 °F 96% 29.99 in 0.5 mi SSW 3.5 mph - N/A Fog Fog
10:55 PM 59.9 °F - 58.6 °F 96% 29.99 in 0.5 mi Calm Calm - N/A Fog Fog
11:15 PM 59.7 °F - 58.5 °F 96% 29.99 in 0.5 mi Calm Calm - N/A Fog Fog
11:35 PM 59.5 °F - 58.5 °F 96% 29.98 in 0.2 mi Calm Calm - N/A Fog Fog
11:55 PM 59.5 °F - 58.5 °F 96% 29.98 in 0.2 mi Calm Calm - N/A Fog Fog